Probability
0 0 0 0 0 0 0 0 0 0 0 0 0 0 0 0 0 0 0 0 0 0 0 0 0 0 0 0 0 0 0 0 0 0 0 0 0 0 0 0 0 0 0
0 0 0 0 0 0 0 0 0 0 0 0 0 0 0 0 0 0 0 0 0 0 0 0 0 0 0 0 0 0 0 0 0 0 0 0 0 0 0 0 0 0 0
0 0 0 0 0 0 0 0 0 0 0 0 0 0 0 0 0 0 0 0 0 0 0 0 0 0 0 0 0 0 0 0 0 0 0 0 0 0 0 0 0 0 0
0 0 0 0 0 0 0 0 0 0 0 0 0 0 0 0 0 0 0 0 0 0 0 0 0 0 0 0 0 0 0 0 0 0 0 0 0 0 0 0 0 0 0
0 0 0 0 0 0 0 0 0 0 0 0 0 0 0 0 0 0 0 0 0 0 0 0 0 0 0 0 0 0 0 0 0 0 0 0 0 0 0 0 0 0 0
0 0 0 0 0 0 0 0 0 0 0 0 0 0 0 0 0 0 0 0 0 0 0 0 0 0 0 0 0 0 0 0 0 0 0 0 0 0 0 0 0 0 0
0 0 0 0 0 0 0 0 0 0 0 0 0 0 0 0 0 0 0 0 0 0 0 0 0 0 0 0 0 0 0 0 0 0 0 0 0 0 0 0 0 0 0
0 0 0 0 0 0 0 0 0 0 0 0 0 0 0 0 0 0 0 0 0 0 0 0 0 0 0 0 0 0 0 0 0 0 0 0 0 0 0 0 0 0 0
0 0 0 0 0 0 0 0 0 0 0 0 0 0 0 0 0 0 0 0 0 0 0 0 0 0 0 0 0 0 0 0 0 0 0 0 0 0 0 0 0 0 0
0 0 0 0 0 0 0 0 1 0 0 0 0 0 0 0 0 0 0 0 0 0 0 0 0 0 0 0 0 0 0 0 0 0 0 0 0 0 0 0 0 0 0
0 0 0 0 0 0 0 0 1 1 0 0 0 0 0 0 0 0 0 0 0 0 0 0 0 0 0 0 0 0 0 0 0 0 0 0 0 0 0 0 0 0 0
0 0 0 0 0 0 0 0 1 2 1 0 0 0 0 0 0 0 0 0 0 0 0 0 0 0 0 0 0 0 0 0 0 0 0 0 0 0 0 0 0 0 0
0 0 0 0 0 0 0 0 1 2 1 0 0 0 0 0 0 0 0 0 0 0 0 0 0 0 0 0 0 0 0 0 0 0 0 0 0 0 0 0 0 0 0
0 0 0 0 0 0 0 0 1 1 0 0 0 0 0 0 0 0 0 0 0 0 0 0 0 0 0 0 0 0 0 0 0 0 0 0 0 0 0 0 0 0 0
0 0 0 0 0 0 0 0 0 0 0 0 0 0 0 0 0 0 0 0 0 0 0 0 0 0 0 0 0 0 0 0 0 0 0 0 0 0 0 0 0 0 0
0 0 0 0 0 0 0 0 0 0 0 0 0 0 0 0 0 0 0 0 0 0 0 0 0 0 0 0 0 0 0 0 0 0 0 0 0 0 0 0 0 0 0
0 0 0 0 0 0 0 0 0 0 0 0 0 0 0 0 0 0 0 0 0 0 0 0 0 0 0 0 0 0 0 0 0 0 0 0 0 0 0 0 0 0 0
0 0 0 0 0 0 0 0 0 0 0 0 0 0 0 0 0 0 0 0 0 0 0 0 0 0 0 0 0 0 0 0 0 0 0 0 0 0 0 0 0 0 0
0 0 0 0 0 0 0 0 0 0 0 0 0 0 0 0 0 0 0 0 0 0 0 0 0 0 0 0 0 0 0 0 0 0 0 0 0 0 0 0 0 0 0
0 0 0 0 0 0 0 0 0 0 0 0 0 0 0 0 0 0 0 0 0 0 0 0 0 0 0 0 0 0 0 0 0 0 0 0 0 0 0 0 0 0 0
0 0 0 0 0 0 0 0 0 0 0 0 0 0 0 0 0 0 0 0 0 0 0 0 0 0 0 0 0 0 0 0 0 0 0 0 0 0 0 0 0 0 0
0 0 0 0 0 0 0 0 0 0 0 0 0 0 0 0 0 0 0 0 0 0 0 0 0 0 0 0 0 0 0 0 0 0 0 0 0 0 0 0 0 0 0
0 0 0 0 0 0 0 0 0 0 0 0 0 0 0 0 0 0 0 0 0 0 0 0 0 0 0 0 0 0 0 0 0 0 0 0 0 0 0 0 0 0 0
0 0 0 0 0 0 0 0 0 0 0 0 0 0 0 0 0 0 0 0 0 0 0 0 0 0 0 0 0 0 0 0 0 0 0 0 0 0 0 0 0 0 0
0 0 0 0 0 0 0 0 0 0 0 0 0 0 0 0 0 0 0 0 0 0 0 0 0 0 0 0 0 0 0 0 0 0 0 0 0 0 0 0 0 0 0
0 0 0 0 0 0 0 0 0 0 0 0 0 0 0 0 0 0 0 0 0 0 0 0 0 0 0 0 0 0 0 0 0 0 0 0 0 0 0 0 0 0 0
Wind_Speed
5 4 3 3 3 2 2 2 2 1 3 5 5 5 4 4 4 3 2 5 5 5 6 6 6 6 6 6 7 8 8 8 9 9 8 7 6 5 4 4 5 5 5
6 6 5 4 4 3 3 2 2 3 4 5 6 5 5 4 4 4 3 4 6 6 6 7 8 8 8 7 7 7 7 7 7 8 7 7 6 5 4 3 4 5 5
8 7 5 5 5 4 3 2 2 3 4 4 5 5 4 4 4 4 4 3 4 6 8 8 8 8 8 8 8 7 7 6 5 6 6 6 6 5 5 3 3 4 4
11 8 6 6 5 4 3 3 3 3 3 3 3 3 4 4 4 3 3 3 3 4 6 9 9 8 8 7 7 7 6 5 5 5 5 5 5 5 5 3 2 2 3
9 9 7 7 6 4 3 5 3 3 3 3 3 3 3 4 4 4 3 3 3 4 3 6 8 8 7 7 6 6 6 5 5 5 4 4 3 4 5 4 3 1 1
5 6 5 7 6 4 4 4 4 3 3 3 3 3 2 3 4 4 4 3 3 3 3 3 3 5 7 6 4 4 5 6 6 5 4 3 2 2 3 4 4 2 1
4 4 4 5 5 5 6 6 4 4 2 2 3 3 3 2 2 3 3 3 3 3 3 3 2 2 3 7 6 5 6 8 7 7 5 3 2 1 2 3 4 4 3
4 4 4 4 4 4 6 6 5 4 2 3 4 3 2 3 2 0 2 4 4 3 4 4 3 2 2 2 4 8 7 7 7 6 6 4 2 1 0 1 2 3 3
5 4 5 4 4 4 6 6 7 7 5 2 3 4 4 4 2 1 2 3 4 3 3 4 4 3 3 2 2 5 6 5 6 5 5 5 4 3 3 2 1 0 1
4 5 6 6 5 4 5 6 6 5 6 4 2 2 2 4 4 2 2 2 3 4 4 5 6 5 4 3 3 4 5 5 5 5 5 6 6 5 5 4 3 2 2
4 5 5 5 6 5 5 6 5 6 5 5 4 3 2 1 2 3 2 2 1 2 3 5 6 5 5 4 3 5 5 4 4 4 5 5 6 7 7 7 5 4 3
2 3 4 5 5 5 5 6 5 7 5 5 5 4 4 3 2 2 2 2 3 3 3 3 5 6 5 5 6 9 8 5 4 3 3 3 4 5 5 5 6 5 4
2 2 3 4 4 5 5 5 5 6 7 7 6 5 4 4 3 3 2 2 2 2 2 3 4 5 6 5 5 11 9 7 6 5 3 3 3 4 4 4 5 5 5
2 2 3 3 4 5 5 5 4 6 6 7 8 7 5 5 4 4 4 3 2 2 2 4 3 5 6 6 7 11 7 10 8 7 5 3 2 2 3 3 4 5 6
2 2 3 3 3 3 4 4 3 5 5 6 6 7 6 5 5 5 4 4 4 4 5 5 4 5 5 5 9 7 6 11 11 9 7 5 3 1 1 2 3 4 5
2 3 3 3 2 2 3 3 2 3 4 4 4 6 6 5 5 5 5 4 4 4 5 5 5 4 6 7 11 7 7 14 13 11 9 8 6 3 1 1 2 4 4
3 4 3 3 3 3 2 2 2 2 3 3 4 5 7 6 6 6 5 4 3 3 4 3 3 3 6 6 7 5 5 6 6 13 12 10 8 6 4 2 3 4 4
4 4 4 3 3 4 3 3 3 2 2 3 3 4 5 5 6 6 6 6 4 3 3 3 2 2 4 5 6 6 5 6 5 12 14 12 11 9 6 4 4 4 4
4 4 4 4 4 4 4 4 3 3 3 3 3 4 4 6 6 5 6 6 5 3 2 2 2 1 1 2 3 3 4 3 5 8 12 12 12 10 9 7 5 4 3
5 5 5 5 5 5 5 4 4 3 3 2 3 3 3 5 6 7 6 7 6 5 4 2 1 1 1 1 3 3 3 4 4 5 7 7 10 12 11 9 8 6 5
6 5 5 5 5 4 5 6 5 5 4 3 3 2 2 4 6 6 5 6 7 5 4 3 2 1 1 2 3 4 5 3 4 3 3 4 5 5 6 9 10 9 7
4 4 5 5 5 6 8 11 8 5 5 5 4 4 3 4 6 8 9 10 9 6 5 3 2 2 3 3 3 4 4 3 4 4 5 4 4 6 5 5 9 11 11
2 4 5 5 6 7 10 11 13 7 6 6 5 5 5 6 7 4 7 10 10 10 9 6 5 5 4 5 4 5 5 6 6 4 5 4 4 6 5 7 15 15 14
1 2 4 5 5 7 10 11 12 7 5 5 6 6 6 6 7 7 6 6 6 8 10 8 7 8 8 7 6 7 7 6 3 2 6 5 4 5 5 6 14 17 16
2 1 2 3 4 5 7 8 7 4 3 4 4 5 6 7 10 11 8 7 7 6 9 13 13 12 13 13 8 4 4 4 4 4 5 5 4 3 2 4 8 15 17
2 2 2 2 1 2 3 5 6 3 3 2 2 2 4 6 9 10 9 8 8 7 5 5 7 9 7 7 8 6 5 4 3 3 4 5 4 3 3 3 3 4 8
Wind_Direction
176 184 194 210 223 227 233 249 249 199 141 134 136 129 120 111 97 77 64 86 94 119 128 127 124 121 126 135 145 151 154 156 156 155 155 154 149 144 133 108 87 71 59
182 185 193 208 225 224 216 202 198 135 114 123 130 134 128 117 98 87 72 76 90 103 114 117 116 116 116 117 123 134 145 153 158 161 163 164 162 157 148 123 95 75 58
189 188 192 201 222 223 191 159 155 118 109 114 126 138 136 126 113 99 86 72 77 91 103 108 108 110 112 114 117 121 127 136 146 157 167 171 172 169 163 147 107 75 54
190 189 192 199 206 199 165 153 150 119 110 116 124 137 143 140 135 125 101 89 78 75 84 93 93 96 105 112 115 119 123 126 129 137 150 164 174 180 175 164 133 71 41
189 186 192 197 189 175 167 165 153 136 134 136 133 120 130 152 161 153 142 128 112 99 81 84 81 77 83 96 108 115 122 128 127 125 126 139 162 183 178 174 173 149 20
190 187 191 195 181 166 167 163 151 137 145 154 132 93 88 144 162 159 169 163 143 132 112 95 74 66 68 67 77 107 116 122 117 116 119 124 143 174 188 192 194 198 236
183 186 194 195 187 177 174 162 141 139 136 123 94 58 18 37 127 161 164 163 170 166 140 133 107 79 54 50 48 91 108 112 104 97 91 89 107 170 213 213 208 212 220
173 178 184 193 199 185 172 165 146 140 149 141 129 111 51 356 347 92 175 175 178 168 171 174 144 126 99 64 54 71 75 91 90 81 69 62 69 87 121 229 223 226 234
180 177 182 186 202 199 188 179 164 151 160 169 145 144 152 202 248 298 231 197 178 176 183 173 176 166 154 119 82 66 69 68 81 76 70 67 72 78 74 66 57 288 259
195 186 185 183 188 197 199 195 175 162 152 163 166 167 165 160 157 197 287 261 208 191 184 178 179 180 174 159 142 116 91 77 86 85 81 74 70 69 67 63 58 51 28
213 195 191 186 189 193 202 203 183 175 164 161 162 160 160 144 134 144 200 243 252 233 199 178 172 174 176 174 166 156 129 107 99 93 82 73 68 66 61 54 48 42 30
227 204 192 195 196 195 200 203 188 183 185 171 166 165 165 166 175 159 169 202 215 238 216 190 175 176 179 180 185 171 159 149 139 123 100 82 68 58 52 45 39 34 33
225 214 187 191 194 198 198 192 189 191 194 192 186 187 186 187 160 156 161 191 207 236 208 213 199 180 182 182 188 179 176 171 168 160 141 112 84 63 47 34 24 19 31
214 199 180 185 189 190 192 190 196 201 201 205 202 193 193 195 172 164 166 166 176 225 228 224 199 193 186 183 190 182 182 183 182 181 173 154 120 80 52 32 16 7 15
182 163 156 161 166 171 182 185 205 212 205 212 213 205 201 198 181 175 171 173 169 192 223 223 205 198 186 182 186 184 180 192 191 192 190 184 172 142 50 17 5 356 352
155 145 144 148 150 148 152 165 189 206 208 218 214 214 210 199 191 183 171 170 180 187 217 221 209 191 182 189 191 187 192 194 198 197 199 199 196 198 217 296 328 334 333
172 171 171 169 173 175 173 172 190 193 209 223 223 216 216 198 195 189 171 160 171 176 215 239 214 188 176 179 177 184 188 195 200 203 203 205 206 210 220 249 294 315 318
187 189 186 185 192 195 193 193 207 213 225 233 230 218 218 205 197 185 174 166 164 174 190 213 208 177 186 185 173 182 192 198 200 209 208 208 211 215 220 233 259 288 302
199 201 197 203 208 206 204 204 204 214 232 243 238 229 223 204 194 182 172 165 158 161 168 181 191 173 158 142 144 189 194 201 207 215 214 214 215 218 222 227 238 257 274
206 211 211 215 216 213 208 204 200 205 221 237 237 234 225 208 197 184 177 169 159 154 154 148 149 163 171 143 141 171 197 212 216 208 211 206 215 221 225 228 232 239 241
219 219 219 227 227 218 215 204 198 200 204 218 230 232 229 218 206 190 178 169 161 156 148 139 150 159 187 167 195 193 207 203 224 205 196 205 205 216 221 229 231 232 228
235 227 224 223 224 228 223 209 195 194 196 206 219 227 235 231 220 207 192 177 166 160 153 150 169 204 224 219 207 197 193 181 234 210 184 221 195 219 219 215 224 224 223
247 237 233 224 223 231 231 216 204 190 196 206 212 215 227 227 220 212 206 198 192 190 181 172 192 216 226 221 205 207 201 205 218 186 170 220 203 228 221 221 221 222 221
270 244 239 230 229 239 235 224 209 194 198 208 213 215 222 234 218 206 207 212 213 210 207 206 211 221 229 227 213 215 215 221 239 187 170 205 205 221 223 213 222 217 215
342 307 268 236 227 253 248 227 191 175 198 214 222 225 224 230 234 213 200 213 225 232 229 224 223 228 233 236 225 208 196 189 226 227 190 201 204 205 226 226 224 219 212
356 360 10 4 326 291 281 235 184 164 189 214 241 262 245 233 235 214 200 205 220 230 218 218 225 234 237 242 228 207 197 193 205 240 202 189 184 159 241 255 224 213 208